Location: Peebles
(55.6412°N, 3.1714°W)
Time: 05:55:45
(UTC+01:00)

deb Agena D - Pass Details

Date: 04 July 2022
Orbit: 797 x 980 km, 99.8° (Epoch: 16 August)

Event Time Altitude Azimuth Distance (km) Brightness Sun altitude
Rises 01:48:42 0° 14° (NNE) 3,361 11.4 -11.2°
Reaches altitude 10° 01:53:07 10° 339° (NNW) 2,462 9.7 -11.1°
Maximum altitude 01:54:22 11° 326° (NW) 2,416 9.3 -11.1°
Drops below altitude 10° 01:55:37 10° 313° (NW) 2,484 9.1 -11.0°
Sets 02:00:10 0° 278° (W) 3,467 9.4 -10.9°
